This is the latest recevied weather packets stored in our database for station/object LX1CU-13. If no packets are shown the sender has not sent any weather packets the latest 10 day(s).
| Time | Temp. | Humidity | Pressure | Rain* | Wind** | Luminosity | Snow |
|---|---|---|---|---|---|---|---|
| 1777462130 | 23.89° C | 29% | 1017.7 hPa | 0 mm | - | - | - |
| 1777461830 | 23.89° C | 29% | 1017.8 hPa | 0 mm | - | - | - |
| 1777461530 | 23.89° C | 29% | 1017.9 hPa | 0 mm | - | - | - |
| 1777461230 | 23.89° C | 29% | 1017.9 hPa | 0 mm | - | - | - |
| 1777460930 | 23.89° C | 30% | 1018 hPa | 0 mm | - | - | - |
| 1777460630 | 23.89° C | 29% | 1018.1 hPa | 0 mm | - | - | - |
| 1777460330 | 23.89° C | 29% | 1018.1 hPa | 0 mm | - | - | - |
| 1777460030 | 24.44° C | 29% | 1018.3 hPa | 0 mm | - | - | - |
| 1777459730 | 25° C | 29% | 1018.1 hPa | 0 mm | - | - | - |
| 1777459430 | 23.89° C | 30% | 1018.1 hPa | 0 mm | - | - | - |
| 1777459130 | 23.89° C | 30% | 1018.1 hPa | 0 mm | - | - | - |
| 1777458830 | 23.89° C | 29% | 1018 hPa | 0 mm | - | - | - |
| 1777458530 | 23.89° C | 29% | 1018.1 hPa | 0 mm | - | - | - |
| 1777458230 | 23.89° C | 29% | 1018.1 hPa | 0 mm | - | - | - |
| 1777457930 | 23.89° C | 29% | 1018 hPa | 0 mm | - | - | - |
| 1777457630 | 23.89° C | 30% | 1018 hPa | 0 mm | - | - | - |
| 1777457330 | 23.33° C | 30% | 1018 hPa | 0 mm | - | - | - |
| 1777457030 | 23.33° C | 30% | 1017.9 hPa | 0 mm | - | - | - |
| 1777456730 | 22.78° C | 30% | 1018 hPa | 0 mm | - | - | - |
| 1777456430 | 22.78° C | 29% | 1018 hPa | 0 mm | - | - | - |
| 1777456130 | 22.78° C | 29% | 1018 hPa | 0 mm | - | - | - |
| 1777455830 | 23.89° C | 28% | 1017.9 hPa | 0 mm | - | - | - |
| 1777455530 | 24.44° C | 28% | 1017.8 hPa | 0 mm | - | - | - |
| 1777455230 | 25° C | 28% | 1017.9 hPa | 0 mm | - | - | - |
| 1777454930 | 25° C | 28% | 1017.9 hPa | 0 mm | - | - | - |
* Rain latest hour (hover to see other rain measurements)
** Current wind speed in m/s (hover to see current wind gust speed)